Content
SEND FEEDBACK

Daily
Averages
Monthly
Summary
Germany

HOCHSPEYER, GERMANY


Home > Europe > Germany
Elevation: 1053 feet     Latitude: 49 30N     Longitude: 007 52E

WEATHER
 
SELECT A DAY
Number of Records: 381,285;   Date Range: 7/3/96 - 8/19/14
 
SHARE

PRINT THIS DATA

[ ← Previous Day ]
WEATHER ALMANAC - JANUARY 20, 2014
[ Next Day → ]
[ °C ]   °F
Weather ElementAverageHighLow
Temperature39 °F41 °F (1:47 pm)36.3 °F (12:58 am)
Dewpoint36.3 °F37.4 °F (11:22 am)33.8 °F (2:38 am)
Humidity90 %93 % (7:09 am)81 % (1:47 pm)
Barometer29.65 in29.79 in (11:58 pm)29.54 in (2:38 am)
Wind Speed1.5 mph5.8 mph (2:58 am)
Weather ElementAverage
Visibility5.6 mi
Wind DirectionESE (112.1 °)

Weather ElementTotal
Precipitation0.08 in
Heating Degree Days26.4 (Base 65)
Averaged from 106 records on January 20, 2014
WEATHER CONDITIONS BREAKOUT
WIND DIRECTION BREAKOUT
WEATHER BY HOUR - JANUARY 20, 2014
[ °C ]   °F
Local TimeTemperatureDewpointHumidityBarometerVisibilityWind DirectionWind SpeedGust SpeedPrecipitationEventsConditions
12:58 AM36.3 °F34.0 °F91 %29.57 in5.6 miEast (80°)4.6 mphOvercast
1:58 AM36.5 °F34.2 °F91 %29.57 in6.2 miNE (50°)3.5 mphOvercast
2:38 AM37.4 °F33.8 °F87 %29.54 in6.2 miNE (50°)2.3 mphOvercast
2:58 AM36.9 °F34.5 °F91 %29.58 in6.2 miNNE (30°)5.8 mphOvercast
3:08 AM37.4 °F33.8 °F87 %29.54 in6.2 miENE (60°)3.5 mphOvercast
3:55 AM37.4 °F33.8 °F87 %29.54 in6.2 miNE (40°)2.3 mphOvercast
3:58 AM37.4 °F33.8 °F87 %29.58 in6.2 miNNE (30°)3.5 mphOvercast
4:33 AM37.4 °F33.8 °F87 %29.54 in6.2 miNE (40°)5.8 mphOvercast
4:35 AM37.4 °F33.8 °F87 %29.54 in6.2 miNE (50°)4.6 mphOvercast
4:58 AM37.0 °F34.3 °F90 %29.58 in6.2 miNE (40°)5.8 mphOvercast
5:32 AM37.4 °F33.8 °F87 %29.54 in6.2 miENE (70°)3.5 mphOvercast
5:58 AM37.2 °F34.9 °F91 %29.58 in5.0 miENE (70°)3.5 mphOvercast
6:58 AM37.0 °F34.9 °F92 %29.59 in3.7 miCalmOvercast
7:09 AM37.4 °F35.6 °F93 %29.56 in2.5 miCalmOvercast
7:14 AM37.4 °F35.6 °F93 %29.56 in2.5 miCalmOvercast
7:58 AM37.2 °F35.4 °F93 %29.62 in2.5 miCalmOvercast
8:05 AM37.4 °F35.6 °F93 %29.58 in3.1 miCalmOvercast
8:17 AM37.4 °F35.6 °F93 %29.58 in2.5 miCalmOvercast
8:23 AM37.4 °F35.6 °F93 %29.58 inCalmOvercast
8:29 AM37.4 °F35.6 °F93 %29.59 in2.5 miVariable1.2 mphOvercast
8:33 AM37.4 °F35.6 °F93 %29.59 in3.1 miNNW (340°)2.3 mphOvercast
8:46 AM37.4 °F35.6 °F93 %29.58 in2.5 miCalmOvercast
8:55 AM37.4 °F35.6 °F93 %29.59 in2.5 miNorthOvercast
8:57 AM37.4 °F35.6 °F93 %29.59 in2.5 miCalmOvercast
8:58 AM37.4 °F35.6 °F93 %29.63 in2.5 miCalmOvercast
9:03 AM37.4 °F35.6 °F93 %29.59 in3.1 miWNW (290°)2.3 mphOvercast
9:05 AM37.4 °F35.6 °F93 %29.59 in3.1 miWest (260°)2.3 mphOvercast
9:14 AM37.4 °F35.6 °F93 %29.59 in5.0 miCalmOvercast
9:34 AM37.4 °F35.6 °F93 %29.59 in3.7 miWest (260°)3.5 mphOvercast
9:58 AM38.1 °F36.3 °F93 %29.64 in5.0 miWest (270°)2.3 mphOvercast
10:01 AM37.4 °F35.6 °F93 %29.60 in5.6 miWSW (240°)2.3 mphOvercast
10:58 AM38.8 °F37.0 °F93 %29.66 in6.2 miWSW (240°)2.3 mphOvercast
11:22 AM39.2 °F37.4 °F93 %29.62 in6.2 miSW (230°)2.3 mphOvercast
11:33 AM39.2 °F37.4 °F93 %29.62 in6.2 miWSW (240°)2.3 mphOvercast
11:41 AM39.2 °F37.4 °F93 %29.62 in6.2 miVariable2.3 mphOvercast
11:49 AM39.2 °F37.4 °F93 %29.62 in6.2 miSW (220°)2.3 mphOvercast
11:51 AM39.2 °F37.4 °F93 %29.62 in6.2 miSSW (210°)2.3 mphLight Drizzle
11:58 AM39.7 °F37.0 °F90 %29.65 in6.2 miWest (270°)1.2 mph0.00 inLight Drizzle
12:02 PM39.2 °F37.4 °F93 %29.61 in6.2 miWest (270°)2.3 mphLight Drizzle
12:03 PM39.2 °F37.4 °F93 %29.61 in6.2 miWest (260°)2.3 mphOvercast
12:40 PM39.2 °F37.4 °F93 %29.62 in6.2 miSSE (150°)1.2 mphOvercast
12:52 PM39.2 °F35.6 °F87 %29.62 in6.2 miEast (90°)1.2 mphOvercast
12:58 PM40.1 °F36.5 °F87 %29.66 in6.2 miEast (90°)2.3 mph0.00 inOvercast
1:07 PM39.2 °F37.4 °F93 %29.62 in6.2 miEast (100°)2.3 mphOvercast
1:14 PM39.2 °F37.4 °F93 %29.62 in6.2 miESE (110°)2.3 mphOvercast
1:47 PM41.0 °F35.6 °F81 %29.62 in6.2 miEast (90°)1.2 mphOvercast
1:58 PM40.3 °F36.5 °F86 %29.66 in6.2 miSE (130°)2.3 mphOvercast
2:11 PM41.0 °F35.6 °F81 %29.63 in6.2 miCalmOvercast
2:19 PM41.0 °F35.6 °F81 %29.63 in6.2 miCalmOvercast
2:26 PM41.0 °F35.6 °F81 %29.63 in6.2 miCalmOvercast
2:33 PM41.0 °F35.6 °F81 %29.63 in6.2 miCalmOvercast
2:58 PM40.6 °F36.1 °F84 %29.67 in6.2 miWest (280°)2.3 mphOvercast
3:06 PM41.0 °F35.6 °F81 %29.64 in6.2 miWest (280°)2.3 mphOvercast
3:22 PM41.0 °F37.4 °F87 %29.64 in6.2 miWest (280°)2.3 mphRainLight Rain
3:44 PM41.0 °F37.4 °F87 %29.65 in6.2 miWest (270°)3.5 mphRainLight Rain
3:52 PM41.0 °F37.4 °F87 %29.65 in6.2 miWest (280°)3.5 mphRainLight Rain
3:57 PM41.0 °F37.4 °F87 %29.65 in6.2 miWNW (290°)3.5 mphRainLight Rain
3:58 PM40.5 °F37.0 °F88 %29.69 in6.2 miWNW (290°)3.5 mph0.01 inRainLight Rain
4:21 PM41.0 °F37.4 °F87 %29.66 in6.2 miCalmRainLight Rain
4:29 PM41.0 °F37.4 °F87 %29.66 in6.2 miWest (260°)1.2 mphRainLight Rain
4:31 PM41.0 °F37.4 °F87 %29.66 in6.2 miWSW (250°)2.3 mphRainLight Rain
4:42 PM41.0 °F37.4 °F87 %29.66 in6.2 miWSW (240°)2.3 mphRainLight Rain
4:44 PM41.0 °F37.4 °F87 %29.66 in6.2 miSW (230°)2.3 mphRainLight Rain
4:55 PM41.0 °F37.4 °F87 %29.67 in5.0 miCalmRainLight Rain
4:58 PM41.0 °F37.4 °F87 %29.71 in5.0 miCalm0.03 inRainLight Rain
5:03 PM41.0 °F37.4 °F87 %29.67 in5.0 miCalmRainLight Rain
5:10 PM41.0 °F37.4 °F87 %29.67 in5.6 miCalmRainLight Rain
5:24 PM41.0 °F37.4 °F87 %29.67 in6.2 miNorthOvercast
5:29 PM41.0 °F37.4 °F87 %29.68 in6.2 miCalmOvercast
5:33 PM41.0 °F37.4 °F87 %29.68 in6.2 miCalmRainLight Rain
5:34 PM39.2 °F37.4 °F93 %29.68 in6.2 miCalmRainLight Rain
5:35 PM39.2 °F37.4 °F93 %29.68 in6.2 miCalmRainLight Rain
5:56 PM39.2 °F37.4 °F93 %29.68 in3.7 miCalmRainLight Rain
5:58 PM39.2 °F37.4 °F93 %29.72 in3.7 miCalm0.01 inRainLight Rain
6:08 PM39.2 °F37.4 °F93 %29.69 in5.0 miCalmRainLight Rain
6:17 PM39.2 °F37.4 °F93 %29.69 in6.2 miNNW (340°)1.2 mphRainLight Rain
6:29 PM39.2 °F37.4 °F93 %29.69 in6.2 miCalmRainLight Rain
6:52 PM39.2 °F37.4 °F93 %29.69 in6.2 miCalmRainLight Rain
6:58 PM39.2 °F36.7 °F91 %29.73 in6.2 miCalm0.03 inRainLight Rain
7:18 PM39.2 °F35.6 °F87 %29.70 in6.2 miWNW (290°)1.2 mphLight Drizzle
7:22 PM39.2 °F35.6 °F87 %29.70 in6.2 miCalmOvercast
7:26 PM39.2 °F35.6 °F87 %29.70 in6.2 miCalmOvercast
7:31 PM39.2 °F37.4 °F93 %29.70 in6.2 miCalmOvercast
7:33 PM39.2 °F37.4 °F93 %29.70 in6.2 miCalmOvercast
7:43 PM39.2 °F37.4 °F93 %29.71 in6.2 miCalmOvercast
7:46 PM39.2 °F37.4 °F93 %29.71 in6.2 miCalmOvercast
7:53 PM39.2 °F37.4 °F93 %29.71 in6.2 miCalmOvercast
7:58 PM39.0 °F36.7 °F91 %29.75 in6.2 miCalm0.00 inOvercast
8:05 PM39.2 °F37.4 °F93 %29.71 in6.2 miCalmOvercast
8:25 PM39.2 °F37.4 °F93 %29.71 in6.2 miCalmOvercast
8:30 PM39.2 °F37.4 °F93 %29.72 in6.2 miWest (260°)1.2 mphOvercast
8:31 PM39.2 °F37.4 °F93 %29.72 in6.2 miWSW (240°)1.2 mphOvercast
8:33 PM39.2 °F37.4 °F93 %29.72 in6.2 miWest (260°)1.2 mphOvercast
8:53 PM39.2 °F37.4 °F93 %29.72 in6.2 miCalmOvercast
8:58 PM39.0 °F36.7 °F91 %29.76 in6.2 miCalmOvercast
9:09 PM39.2 °F35.6 °F87 %29.73 in6.2 miWSW (240°)1.2 mphOvercast
9:10 PM39.2 °F35.6 °F87 %29.73 in6.2 miWest (270°)1.2 mphOvercast
9:29 PM39.2 °F35.6 °F87 %29.73 in6.2 miSSW (210°)2.3 mphOvercast
9:50 PM39.2 °F35.6 °F87 %29.74 in6.2 miSSW (200°)2.3 mphOvercast
9:58 PM38.7 °F36.3 °F91 %29.78 in6.2 miSSW (210°)2.3 mphOvercast
10:33 PM39.2 °F35.6 °F87 %29.74 in6.2 miCalmOvercast
10:58 PM38.5 °F36.0 °F91 %29.78 in6.2 miNW (320°)1.2 mphOvercast
11:00 PM37.4 °F35.6 °F93 %29.74 in6.2 miNW (310°)1.2 mphOvercast
11:27 PM37.4 °F35.6 °F93 %29.75 in6.2 miWest (280°)2.3 mphOvercast
11:31 PM39.2 °F35.6 °F87 %29.75 in6.2 miWest (280°)2.3 mphOvercast
11:58 PM38.7 °F36.5 °F92 %29.79 in6.2 miWSW (250°)3.5 mphOvercast
Hourly data recorded from ETAR, located miles away from Hochspeyer, Germany







STORIES FROM OUR PARTNERS